owner,sensor,date,latitude,longitude,vertical_datum,sea_water_practical_salinity,qcFlag 
NERRS,ioos:station:NOAA.NERRS:gtmpcwq:1,2014-10-01T14:45:00Z,29.6671,-81.2574,1.6,0.1,1111122 
NERRS,ioos:station:NOAA.NERRS:gtmpcwq:1,2014-10-01T19:45:00Z,29.6671,-81.2574,1.87,0.1,1111122 
NERRS,ioos:station:NOAA.NERRS:gtmpcwq:1,2014-10-01T20:45:00Z,29.6671,-81.2574,1.95,0.1,1111122 
NERRS,ioos:station:NOAA.NERRS:gtmpcwq:1,2014-10-01T21:45:00Z,29.6671,-81.2574,1.97,0.1,1111122 
NERRS,ioos:station:NOAA.NERRS:gtmpcwq:1,2014-10-02T03:45:00Z,29.6671,-81.2574,1.63,0.1,1111122 
NERRS,ioos:station:NOAA.NERRS:gtmpcwq:1,2014-10-02T13:45:00Z,29.6671,-81.2574,1.65,0.1,1111122 
NERRS,ioos:station:NOAA.NERRS:gtmpcwq:1,2014-10-02T14:45:00Z,29.6671,-81.2574,1.58,0.1,1111122 
NERRS,ioos:station:NOAA.NERRS:gtmpcwq:1,2014-10-02T15:45:00Z,29.6671,-81.2574,1.52,0.1,1111122 
NERRS,ioos:station:NOAA.NERRS:gtmpcwq:1,2014-10-02T20:45:00Z,29.6671,-81.2574,1.82,0.1,1111122 
NERRS,ioos:station:NOAA.NERRS:gtmpcwq:1,2014-10-02T21:45:00Z,29.6671,-81.2574,1.89,0.1,1111122 
NERRS,ioos:station:NOAA.NERRS:gtmpcwq:1,2014-10-02T22:45:00Z,29.6671,-81.2574,1.93,0.2,1111122 
NERRS,ioos:station:NOAA.NERRS:gtmpcwq:1,2014-10-02T23:45:00Z,29.6671,-81.2574,1.9,0.1,1111122 
NERRS,ioos:station:NOAA.NERRS:gtmpcwq:1,2014-10-03T00:45:00Z,29.6671,-81.2574,1.84,0.1,1111122 
NERRS,ioos:station:NOAA.NERRS:gtmpcwq:1,2014-10-03T01:45:00Z,29.6671,-81.2574,1.78,0.1,1111122 
NERRS,ioos:station:NOAA.NERRS:gtmpcwq:1,2014-10-03T02:45:00Z,29.6671,-81.2574,1.71,0.1,1111122 
NERRS,ioos:station:NOAA.NERRS:gtmpcwq:1,2014-10-03T03:45:00Z,29.6671,-81.2574,1.63,0.1,1111122 
NERRS,ioos:station:NOAA.NERRS:gtmpcwq:1,2014-10-03T04:45:00Z,29.6671,-81.2574,1.54,0.1,1111122 
NERRS,ioos:station:NOAA.NERRS:gtmpcwq:1,2014-10-03T05:45:00Z,29.6671,-81.2574,1.49,0.1,1111122 
NERRS,ioos:station:NOAA.NERRS:gtmpcwq:1,2014-10-03T06:45:00Z,29.6671,-81.2574,1.49,0.1,1111122 
NERRS,ioos:station:NOAA.NERRS:gtmpcwq:1,2014-10-03T08:45:00Z,29.6671,-81.2574,1.71,0.1,1111122 
NERRS,ioos:station:NOAA.NERRS:gtmpcwq:1,2014-10-03T09:45:00Z,29.6671,-81.2574,1.79,0.1,1111122 
NERRS,ioos:station:NOAA.NERRS:gtmpcwq:1,2014-10-03T10:45:00Z,29.6671,-81.2574,1.84,0.1,1111122 
NERRS,ioos:station:NOAA.NERRS:gtmpcwq:1,2014-10-03T11:45:00Z,29.6671,-81.2574,1.83,0.1,1111122 
NERRS,ioos:station:NOAA.NERRS:gtmpcwq:1,2014-10-03T14:45:00Z,29.6671,-81.2574,1.61,0.1,1111122 
NERRS,ioos:station:NOAA.NERRS:gtmpcwq:1,2014-10-03T15:45:00Z,29.6671,-81.2574,1.53,0.1,1111122 
NERRS,ioos:station:NOAA.NERRS:gtmpcwq:1,2014-10-03T16:45:00Z,29.6671,-81.2574,1.46,0.1,1111122 
NERRS,ioos:station:NOAA.NERRS:gtmpcwq:1,2014-10-03T17:45:00Z,29.6671,-81.2574,1.4,0.1,1111122 
NERRS,ioos:station:NOAA.NERRS:gtmpcwq:1,2014-10-03T18:45:00Z,29.6671,-81.2574,1.4,0.1,1111122 
NERRS,ioos:station:NOAA.NERRS:gtmpcwq:1,2014-10-03T20:45:00Z,29.6671,-81.2574,1.65,0.1,1111122 
NERRS,ioos:station:NOAA.NERRS:gtmpcwq:1,2014-10-03T21:45:00Z,29.6671,-81.2574,1.74,0.1,1111122 
NERRS,ioos:station:NOAA.NERRS:gtmpcwq:1,2014-10-03T22:45:00Z,29.6671,-81.2574,1.84,0.2,1111122 
NERRS,ioos:station:NOAA.NERRS:gtmpcwq:1,2014-10-03T23:45:00Z,29.6671,-81.2574,1.89,0.2,1111122 
NERRS,ioos:station:NOAA.NERRS:gtmpcwq:1,2014-10-04T00:45:00Z,29.6671,-81.2574,1.87,0.2,1111122 
NERRS,ioos:station:NOAA.NERRS:gtmpcwq:1,2014-10-04T01:45:00Z,29.6671,-81.2574,1.82,0.1,1111122 
NERRS,ioos:station:NOAA.NERRS:gtmpcwq:1,2014-10-04T02:45:00Z,29.6671,-81.2574,1.74,0.1,1111122 
NERRS,ioos:station:NOAA.NERRS:gtmpcwq:1,2014-10-04T03:45:00Z,29.6671,-81.2574,1.66,0.1,1111122 
NERRS,ioos:station:NOAA.NERRS:gtmpcwq:1,2014-10-04T05:45:00Z,29.6671,-81.2574,1.49,0.1,1111122 
NERRS,ioos:station:NOAA.NERRS:gtmpcwq:1,2014-10-04T06:45:00Z,29.6671,-81.2574,1.43,0.1,1111122 
NERRS,ioos:station:NOAA.NERRS:gtmpcwq:1,2014-10-04T07:45:00Z,29.6671,-81.2574,1.41,0.1,1111122 
NERRS,ioos:station:NOAA.NERRS:gtmpcwq:1,2014-10-04T09:45:00Z,29.6671,-81.2574,1.64,0.1,1111122 
NERRS,ioos:station:NOAA.NERRS:gtmpcwq:1,2014-10-04T10:45:00Z,29.6671,-81.2574,1.73,0.1,1111122 
NERRS,ioos:station:NOAA.NERRS:gtmpcwq:1,2014-10-04T11:45:00Z,29.6671,-81.2574,1.78,0.1,1111122 
NERRS,ioos:station:NOAA.NERRS:gtmpcwq:1,2014-10-04T12:45:00Z,29.6671,-81.2574,1.77,0.1,1111122 
NERRS,ioos:station:NOAA.NERRS:gtmpcwq:1,2014-10-04T13:45:00Z,29.6671,-81.2574,1.7,0.1,1111122 
NERRS,ioos:station:NOAA.NERRS:gtmpcwq:1,2014-10-04T14:45:00Z,29.6671,-81.2574,1.63,0.1,1111122 
NERRS,ioos:station:NOAA.NERRS:gtmpcwq:1,2014-10-04T15:45:00Z,29.6671,-81.2574,1.54,0.1,1111122 
NERRS,ioos:station:NOAA.NERRS:gtmpcwq:1,2014-10-04T16:45:00Z,29.6671,-81.2574,1.46,0.1,1111122 
NERRS,ioos:station:NOAA.NERRS:gtmpcwq:1,2014-10-04T17:45:00Z,29.6671,-81.2574,1.39,0.1,1111122 
NERRS,ioos:station:NOAA.NERRS:gtmpcwq:1,2014-10-04T18:45:00Z,29.6671,-81.2574,1.34,0.1,1111122 
NERRS,ioos:station:NOAA.NERRS:gtmpcwq:1,2014-10-04T19:45:00Z,29.6671,-81.2574,1.33,0.1,1111122 
NERRS,ioos:station:NOAA.NERRS:gtmpcwq:1,2014-10-04T20:45:00Z,29.6671,-81.2574,1.46,0.1,1111122 
NERRS,ioos:station:NOAA.NERRS:gtmpcwq:1,2014-10-04T21:45:00Z,29.6671,-81.2574,1.61,0.1,1111122 
NERRS,ioos:station:NOAA.NERRS:gtmpcwq:1,2014-10-04T22:45:00Z,29.6671,-81.2574,1.71,0.1,1111122 
NERRS,ioos:station:NOAA.NERRS:gtmpcwq:1,2014-10-04T23:45:00Z,29.6671,-81.2574,1.81,0.2,1111122 
NERRS,ioos:station:NOAA.NERRS:gtmpcwq:1,2014-10-05T00:45:00Z,29.6671,-81.2574,1.88,0.3,1111122 
NERRS,ioos:station:NOAA.NERRS:gtmpcwq:1,2014-10-05T01:45:00Z,29.6671,-81.2574,1.88,0.2,1111122 
NERRS,ioos:station:NOAA.NERRS:gtmpcwq:1,2014-10-05T02:45:00Z,29.6671,-81.2574,1.82,0.1,1111122 
NERRS,ioos:station:NOAA.NERRS:gtmpcwq:1,2014-10-05T03:45:00Z,29.6671,-81.2574,1.75,0.1,1111122 
NERRS,ioos:station:NOAA.NERRS:gtmpcwq:1,2014-10-05T04:45:00Z,29.6671,-81.2574,1.67,0.1,1111122 
NERRS,ioos:station:NOAA.NERRS:gtmpcwq:1,2014-10-05T06:45:00Z,29.6671,-81.2574,1.51,0.1,1111122 
NERRS,ioos:station:NOAA.NERRS:gtmpcwq:1,2014-10-05T07:45:00Z,29.6671,-81.2574,1.45,0.1,1111122 
NERRS,ioos:station:NOAA.NERRS:gtmpcwq:1,2014-10-05T09:45:00Z,29.6671,-81.2574,1.63,0.1,1111122 
NERRS,ioos:station:NOAA.NERRS:gtmpcwq:1,2014-10-05T10:45:00Z,29.6671,-81.2574,1.73,0.1,1111122 
NERRS,ioos:station:NOAA.NERRS:gtmpcwq:1,2014-10-05T11:45:00Z,29.6671,-81.2574,1.83,0.1,1111122 
NERRS,ioos:station:NOAA.NERRS:gtmpcwq:1,2014-10-05T12:45:00Z,29.6671,-81.2574,1.9,0.5,1111122 
NERRS,ioos:station:NOAA.NERRS:gtmpcwq:1,2014-10-05T13:45:00Z,29.6671,-81.2574,1.94,0.7,1111122 
NERRS,ioos:station:NOAA.NERRS:gtmpcwq:1,2014-10-05T14:45:00Z,29.6671,-81.2574,1.89,0.3,1111122 
NERRS,ioos:station:NOAA.NERRS:gtmpcwq:1,2014-10-05T15:45:00Z,29.6671,-81.2574,1.82,0.1,1111122 
NERRS,ioos:station:NOAA.NERRS:gtmpcwq:1,2014-10-05T16:45:00Z,29.6671,-81.2574,1.74,0.1,1111122 
NERRS,ioos:station:NOAA.NERRS:gtmpcwq:1,2014-10-05T17:45:00Z,29.6671,-81.2574,1.66,0.1,1111122 
NERRS,ioos:station:NOAA.NERRS:gtmpcwq:1,2014-10-05T18:45:00Z,29.6671,-81.2574,1.56,0.1,1111122 
NERRS,ioos:station:NOAA.NERRS:gtmpcwq:1,2014-10-05T19:45:00Z,29.6671,-81.2574,1.49,0.1,1111122 
NERRS,ioos:station:NOAA.NERRS:gtmpcwq:1,2014-10-05T20:45:00Z,29.6671,-81.2574,1.49,0.1,1111122 
NERRS,ioos:station:NOAA.NERRS:gtmpcwq:1,2014-10-05T21:45:00Z,29.6671,-81.2574,1.63,0.1,1111122 
NERRS,ioos:station:NOAA.NERRS:gtmpcwq:1,2014-10-05T22:45:00Z,29.6671,-81.2574,1.74,0.1,1111122 
NERRS,ioos:station:NOAA.NERRS:gtmpcwq:1,2014-10-06T00:45:00Z,29.6671,-81.2574,1.95,0.7,1111122 
NERRS,ioos:station:NOAA.NERRS:gtmpcwq:1,2014-10-06T01:45:00Z,29.6671,-81.2574,2.0,1.4,1111122 
NERRS,ioos:station:NOAA.NERRS:gtmpcwq:1,2014-10-06T02:45:00Z,29.6671,-81.2574,1.99,1.5,1111122 
NERRS,ioos:station:NOAA.NERRS:gtmpcwq:1,2014-10-06T03:45:00Z,29.6671,-81.2574,1.91,0.4,1111122 
NERRS,ioos:station:NOAA.NERRS:gtmpcwq:1,2014-10-06T04:45:00Z,29.6671,-81.2574,1.83,0.1,1111122 
NERRS,ioos:station:NOAA.NERRS:gtmpcwq:1,2014-10-06T05:45:00Z,29.6671,-81.2574,1.76,0.1,1111122 
NERRS,ioos:station:NOAA.NERRS:gtmpcwq:1,2014-10-06T06:45:00Z,29.6671,-81.2574,1.67,0.1,1111122 
NERRS,ioos:station:NOAA.NERRS:gtmpcwq:1,2014-10-06T07:45:00Z,29.6671,-81.2574,1.58,0.1,1111122 
NERRS,ioos:station:NOAA.NERRS:gtmpcwq:1,2014-10-06T08:45:00Z,29.6671,-81.2574,1.52,0.1,1111122 
NERRS,ioos:station:NOAA.NERRS:gtmpcwq:1,2014-10-06T09:45:00Z,29.6671,-81.2574,1.58,0.1,1111122 
NERRS,ioos:station:NOAA.NERRS:gtmpcwq:1,2014-10-06T10:45:00Z,29.6671,-81.2574,1.71,0.1,1111122 
NERRS,ioos:station:NOAA.NERRS:gtmpcwq:1,2014-10-06T11:45:00Z,29.6671,-81.2574,1.82,0.1,1111122 
NERRS,ioos:station:NOAA.NERRS:gtmpcwq:1,2014-10-06T12:45:00Z,29.6671,-81.2574,1.92,1.1,1111122 
NERRS,ioos:station:NOAA.NERRS:gtmpcwq:1,2014-10-06T13:45:00Z,29.6671,-81.2574,1.99,10.0,1111122 
NERRS,ioos:station:NOAA.NERRS:gtmpcwq:1,2014-10-06T14:45:00Z,29.6671,-81.2574,2.01,11.3,1111122 
NERRS,ioos:station:NOAA.NERRS:gtmpcwq:1,2014-10-06T15:45:00Z,29.6671,-81.2574,1.96,10.0,1111122 
NERRS,ioos:station:NOAA.NERRS:gtmpcwq:1,2014-10-06T16:45:00Z,29.6671,-81.2574,1.88,3.0,1111122 
NERRS,ioos:station:NOAA.NERRS:gtmpcwq:1,2014-10-06T17:45:00Z,29.6671,-81.2574,1.8,0.5,1111122 
NERRS,ioos:station:NOAA.NERRS:gtmpcwq:1,2014-10-06T18:45:00Z,29.6671,-81.2574,1.71,0.1,1111122 
NERRS,ioos:station:NOAA.NERRS:gtmpcwq:1,2014-10-06T19:45:00Z,29.6671,-81.2574,1.62,0.1,1111122 
NERRS,ioos:station:NOAA.NERRS:gtmpcwq:1,2014-10-06T20:45:00Z,29.6671,-81.2574,1.54,0.1,1111122 
NERRS,ioos:station:NOAA.NERRS:gtmpcwq:1,2014-10-06T21:45:00Z,29.6671,-81.2574,1.52,0.1,1111122 
NERRS,ioos:station:NOAA.NERRS:gtmpcwq:1,2014-10-06T22:45:00Z,29.6671,-81.2574,1.65,0.1,1111122 
NERRS,ioos:station:NOAA.NERRS:gtmpcwq:1,2014-10-06T23:45:00Z,29.6671,-81.2574,1.76,0.3,1111122 
NERRS,ioos:station:NOAA.NERRS:gtmpcwq:1,2014-10-07T00:45:00Z,29.6671,-81.2574,1.86,0.7,1111122 
NERRS,ioos:station:NOAA.NERRS:gtmpcwq:1,2014-10-07T01:45:00Z,29.6671,-81.2574,1.96,2.5,1111122 
NERRS,ioos:station:NOAA.NERRS:gtmpcwq:1,2014-10-07T02:45:00Z,29.6671,-81.2574,2.0,5.0,1111122 
NERRS,ioos:station:NOAA.NERRS:gtmpcwq:1,2014-10-07T03:45:00Z,29.6671,-81.2574,1.98,6.3,1111122 
NERRS,ioos:station:NOAA.NERRS:gtmpcwq:1,2014-10-07T04:45:00Z,29.6671,-81.2574,1.9,1.8,1111122 
NERRS,ioos:station:NOAA.NERRS:gtmpcwq:1,2014-10-07T05:45:00Z,29.6671,-81.2574,1.82,0.3,1111122 
NERRS,ioos:station:NOAA.NERRS:gtmpcwq:1,2014-10-07T06:45:00Z,29.6671,-81.2574,1.74,0.1,1111122 
NERRS,ioos:station:NOAA.NERRS:gtmpcwq:1,2014-10-07T07:45:00Z,29.6671,-81.2574,1.66,0.1,1111122 
NERRS,ioos:station:NOAA.NERRS:gtmpcwq:1,2014-10-07T08:45:00Z,29.6671,-81.2574,1.57,0.1,1111122 
NERRS,ioos:station:NOAA.NERRS:gtmpcwq:1,2014-10-07T09:45:00Z,29.6671,-81.2574,1.51,0.1,1111122 
NERRS,ioos:station:NOAA.NERRS:gtmpcwq:1,2014-10-07T10:45:00Z,29.6671,-81.2574,1.58,0.1,1111122 
NERRS,ioos:station:NOAA.NERRS:gtmpcwq:1,2014-10-07T11:45:00Z,29.6671,-81.2574,1.72,0.1,1111122 
NERRS,ioos:station:NOAA.NERRS:gtmpcwq:1,2014-10-07T12:45:00Z,29.6671,-81.2574,1.82,0.2,1111122 
NERRS,ioos:station:NOAA.NERRS:gtmpcwq:1,2014-10-07T13:45:00Z,29.6671,-81.2574,1.93,3.6,1111122 
NERRS,ioos:station:NOAA.NERRS:gtmpcwq:1,2014-10-07T14:45:00Z,29.6671,-81.2574,2.0,11.9,1111122 
NERRS,ioos:station:NOAA.NERRS:gtmpcwq:1,2014-10-07T15:45:00Z,29.6671,-81.2574,2.01,13.2,1111122 
NERRS,ioos:station:NOAA.NERRS:gtmpcwq:1,2014-10-07T16:45:00Z,29.6671,-81.2574,1.94,11.8,1111122 
NERRS,ioos:station:NOAA.NERRS:gtmpcwq:1,2014-10-07T17:45:00Z,29.6671,-81.2574,1.86,4.6,1111122 
NERRS,ioos:station:NOAA.NERRS:gtmpcwq:1,2014-10-07T18:45:00Z,29.6671,-81.2574,1.78,1.0,1111122 
NERRS,ioos:station:NOAA.NERRS:gtmpcwq:1,2014-10-07T19:45:00Z,29.6671,-81.2574,1.69,0.3,1111122 
NERRS,ioos:station:NOAA.NERRS:gtmpcwq:1,2014-10-07T20:45:00Z,29.6671,-81.2574,1.6,0.1,1111122 
NERRS,ioos:station:NOAA.NERRS:gtmpcwq:1,2014-10-07T21:45:00Z,29.6671,-81.2574,1.52,0.1,1111122 
NERRS,ioos:station:NOAA.NERRS:gtmpcwq:1,2014-10-07T22:45:00Z,29.6671,-81.2574,1.49,0.1,1111122 
NERRS,ioos:station:NOAA.NERRS:gtmpcwq:1,2014-10-07T23:45:00Z,29.6671,-81.2574,1.62,0.1,1111122 
NERRS,ioos:station:NOAA.NERRS:gtmpcwq:1,2014-10-08T00:45:00Z,29.6671,-81.2574,1.75,0.3,1111122 
NERRS,ioos:station:NOAA.NERRS:gtmpcwq:1,2014-10-08T01:45:00Z,29.6671,-81.2574,1.85,1.1,1111122 
NERRS,ioos:station:NOAA.NERRS:gtmpcwq:1,2014-10-08T02:45:00Z,29.6671,-81.2574,1.93,4.6,1111122 
NERRS,ioos:station:NOAA.NERRS:gtmpcwq:1,2014-10-08T03:45:00Z,29.6671,-81.2574,1.96,9.0,1111122 
NERRS,ioos:station:NOAA.NERRS:gtmpcwq:1,2014-10-08T04:45:00Z,29.6671,-81.2574,1.91,8.6,1111122 
NERRS,ioos:station:NOAA.NERRS:gtmpcwq:1,2014-10-08T06:45:00Z,29.6671,-81.2574,1.76,0.4,1111122 
NERRS,ioos:station:NOAA.NERRS:gtmpcwq:1,2014-10-08T07:45:00Z,29.6671,-81.2574,1.67,0.1,1111122 
NERRS,ioos:station:NOAA.NERRS:gtmpcwq:1,2014-10-08T08:45:00Z,29.6671,-81.2574,1.58,0.1,1111122 
NERRS,ioos:station:NOAA.NERRS:gtmpcwq:1,2014-10-08T09:45:00Z,29.6671,-81.2574,1.5,0.1,1111122 
NERRS,ioos:station:NOAA.NERRS:gtmpcwq:1,2014-10-08T10:45:00Z,29.6671,-81.2574,1.45,0.1,1111122 
NERRS,ioos:station:NOAA.NERRS:gtmpcwq:1,2014-10-08T11:45:00Z,29.6671,-81.2574,1.54,0.1,1111122 
NERRS,ioos:station:NOAA.NERRS:gtmpcwq:1,2014-10-08T12:45:00Z,29.6671,-81.2574,1.7,0.3,1111122 
NERRS,ioos:station:NOAA.NERRS:gtmpcwq:1,2014-10-08T13:45:00Z,29.6671,-81.2574,1.82,0.4,1111122 
NERRS,ioos:station:NOAA.NERRS:gtmpcwq:1,2014-10-08T14:45:00Z,29.6671,-81.2574,1.91,7.1,1111122 
NERRS,ioos:station:NOAA.NERRS:gtmpcwq:1,2014-10-08T15:45:00Z,29.6671,-81.2574,1.97,13.2,1111122 
NERRS,ioos:station:NOAA.NERRS:gtmpcwq:1,2014-10-08T16:45:00Z,29.6671,-81.2574,1.96,14.4,1111122 
NERRS,ioos:station:NOAA.NERRS:gtmpcwq:1,2014-10-08T17:45:00Z,29.6671,-81.2574,1.89,12.7,1111122 
NERRS,ioos:station:NOAA.NERRS:gtmpcwq:1,2014-10-08T18:45:00Z,29.6671,-81.2574,1.81,6.4,1111122 
NERRS,ioos:station:NOAA.NERRS:gtmpcwq:1,2014-10-08T19:45:00Z,29.6671,-81.2574,1.72,1.2,1111122 
NERRS,ioos:station:NOAA.NERRS:gtmpcwq:1,2014-10-08T20:45:00Z,29.6671,-81.2574,1.63,0.4,1111122 
NERRS,ioos:station:NOAA.NERRS:gtmpcwq:1,2014-10-08T21:45:00Z,29.6671,-81.2574,1.54,0.1,1111122 
NERRS,ioos:station:NOAA.NERRS:gtmpcwq:1,2014-10-08T22:45:00Z,29.6671,-81.2574,1.46,0.1,1111122 
NERRS,ioos:station:NOAA.NERRS:gtmpcwq:1,2014-10-08T23:45:00Z,29.6671,-81.2574,1.43,0.1,1111122 
NERRS,ioos:station:NOAA.NERRS:gtmpcwq:1,2014-10-09T00:45:00Z,29.6671,-81.2574,1.56,0.1,1111122 
NERRS,ioos:station:NOAA.NERRS:gtmpcwq:1,2014-10-09T01:45:00Z,29.6671,-81.2574,1.7,0.4,1111122 
NERRS,ioos:station:NOAA.NERRS:gtmpcwq:1,2014-10-09T02:45:00Z,29.6671,-81.2574,1.8,1.0,1111122 
NERRS,ioos:station:NOAA.NERRS:gtmpcwq:1,2014-10-09T03:45:00Z,29.6671,-81.2574,1.87,3.6,1111122 
NERRS,ioos:station:NOAA.NERRS:gtmpcwq:1,2014-10-09T04:45:00Z,29.6671,-81.2574,1.89,5.3,1111122 
NERRS,ioos:station:NOAA.NERRS:gtmpcwq:1,2014-10-09T05:45:00Z,29.6671,-81.2574,1.83,4.0,1111122 
NERRS,ioos:station:NOAA.NERRS:gtmpcwq:1,2014-10-09T06:45:00Z,29.6671,-81.2574,1.76,1.1,1111122 
NERRS,ioos:station:NOAA.NERRS:gtmpcwq:1,2014-10-09T07:45:00Z,29.6671,-81.2574,1.66,0.2,1111122 
NERRS,ioos:station:NOAA.NERRS:gtmpcwq:1,2014-10-09T08:45:00Z,29.6671,-81.2574,1.57,0.1,1111122 
NERRS,ioos:station:NOAA.NERRS:gtmpcwq:1,2014-10-09T09:45:00Z,29.6671,-81.2574,1.48,0.1,1111122 
NERRS,ioos:station:NOAA.NERRS:gtmpcwq:1,2014-10-09T10:45:00Z,29.6671,-81.2574,1.41,0.1,1111122 
NERRS,ioos:station:NOAA.NERRS:gtmpcwq:1,2014-10-09T11:45:00Z,29.6671,-81.2574,1.37,0.1,1111122 
NERRS,ioos:station:NOAA.NERRS:gtmpcwq:1,2014-10-09T12:45:00Z,29.6671,-81.2574,1.47,0.1,1111122 
NERRS,ioos:station:NOAA.NERRS:gtmpcwq:1,2014-10-09T13:45:00Z,29.6671,-81.2574,1.63,0.2,1111122 
NERRS,ioos:station:NOAA.NERRS:gtmpcwq:1,2014-10-09T14:45:00Z,29.6671,-81.2574,1.76,0.4,1111122 
NERRS,ioos:station:NOAA.NERRS:gtmpcwq:1,2014-10-09T15:45:00Z,29.6671,-81.2574,1.85,8.1,1111122 
NERRS,ioos:station:NOAA.NERRS:gtmpcwq:1,2014-10-09T16:45:00Z,29.6671,-81.2574,1.9,12.8,1111122 
NERRS,ioos:station:NOAA.NERRS:gtmpcwq:1,2014-10-09T17:45:00Z,29.6671,-81.2574,1.88,13.2,1111122 
NERRS,ioos:station:NOAA.NERRS:gtmpcwq:1,2014-10-09T18:45:00Z,29.6671,-81.2574,1.8,11.1,1111122 
NERRS,ioos:station:NOAA.NERRS:gtmpcwq:1,2014-10-09T19:45:00Z,29.6671,-81.2574,1.72,3.0,1111122 
NERRS,ioos:station:NOAA.NERRS:gtmpcwq:1,2014-10-09T20:45:00Z,29.6671,-81.2574,1.63,0.8,1111122 
NERRS,ioos:station:NOAA.NERRS:gtmpcwq:1,2014-10-09T22:45:00Z,29.6671,-81.2574,1.45,0.1,1111122 
NERRS,ioos:station:NOAA.NERRS:gtmpcwq:1,2014-10-09T23:45:00Z,29.6671,-81.2574,1.39,0.1,1111122 
NERRS,ioos:station:NOAA.NERRS:gtmpcwq:1,2014-10-10T02:45:00Z,29.6671,-81.2574,1.68,0.5,1111122 
NERRS,ioos:station:NOAA.NERRS:gtmpcwq:1,2014-10-10T03:45:00Z,29.6671,-81.2574,1.77,1.6,1111122 
NERRS,ioos:station:NOAA.NERRS:gtmpcwq:1,2014-10-10T04:45:00Z,29.6671,-81.2574,1.84,3.4,1111122 
NERRS,ioos:station:NOAA.NERRS:gtmpcwq:1,2014-10-10T05:45:00Z,29.6671,-81.2574,1.85,4.5,1111122 
NERRS,ioos:station:NOAA.NERRS:gtmpcwq:1,2014-10-10T06:45:00Z,29.6671,-81.2574,1.78,2.4,1111122 
NERRS,ioos:station:NOAA.NERRS:gtmpcwq:1,2014-10-10T07:45:00Z,29.6671,-81.2574,1.7,0.9,1111122 
NERRS,ioos:station:NOAA.NERRS:gtmpcwq:1,2014-10-10T08:45:00Z,29.6671,-81.2574,1.6,0.3,1111122 
NERRS,ioos:station:NOAA.NERRS:gtmpcwq:1,2014-10-10T09:45:00Z,29.6671,-81.2574,1.51,0.1,1111122 
NERRS,ioos:station:NOAA.NERRS:gtmpcwq:1,2014-10-10T10:45:00Z,29.6671,-81.2574,1.43,0.1,1111122 
NERRS,ioos:station:NOAA.NERRS:gtmpcwq:1,2014-10-10T11:45:00Z,29.6671,-81.2574,1.37,0.1,1111122 
NERRS,ioos:station:NOAA.NERRS:gtmpcwq:1,2014-10-10T12:45:00Z,29.6671,-81.2574,1.39,0.1,1111122 
NERRS,ioos:station:NOAA.NERRS:gtmpcwq:1,2014-10-10T14:45:00Z,29.6671,-81.2574,1.69,0.3,1111122 
NERRS,ioos:station:NOAA.NERRS:gtmpcwq:1,2014-10-10T16:45:00Z,29.6671,-81.2574,1.88,11.5,1111122 
NERRS,ioos:station:NOAA.NERRS:gtmpcwq:1,2014-10-10T17:45:00Z,29.6671,-81.2574,1.92,13.4,1111122 
NERRS,ioos:station:NOAA.NERRS:gtmpcwq:1,2014-10-10T18:45:00Z,29.6671,-81.2574,1.89,13.8,1111122 
NERRS,ioos:station:NOAA.NERRS:gtmpcwq:1,2014-10-10T19:45:00Z,29.6671,-81.2574,1.81,12.1,1111122 
NERRS,ioos:station:NOAA.NERRS:gtmpcwq:1,2014-10-10T20:45:00Z,29.6671,-81.2574,1.73,5.3,1111122 
NERRS,ioos:station:NOAA.NERRS:gtmpcwq:1,2014-10-10T21:45:00Z,29.6671,-81.2574,1.64,1.6,1111122 
NERRS,ioos:station:NOAA.NERRS:gtmpcwq:1,2014-10-10T22:45:00Z,29.6671,-81.2574,1.55,0.5,1111122 
NERRS,ioos:station:NOAA.NERRS:gtmpcwq:1,2014-10-10T23:45:00Z,29.6671,-81.2574,1.46,0.3,1111122 
NERRS,ioos:station:NOAA.NERRS:gtmpcwq:1,2014-10-11T01:45:00Z,29.6671,-81.2574,1.44,0.1,1111122 
NERRS,ioos:station:NOAA.NERRS:gtmpcwq:1,2014-10-11T02:45:00Z,29.6671,-81.2574,1.58,0.6,1111122 
NERRS,ioos:station:NOAA.NERRS:gtmpcwq:1,2014-10-11T03:45:00Z,29.6671,-81.2574,1.7,0.9,1111122 
NERRS,ioos:station:NOAA.NERRS:gtmpcwq:1,2014-10-11T04:45:00Z,29.6671,-81.2574,1.78,3.0,1111122 
NERRS,ioos:station:NOAA.NERRS:gtmpcwq:1,2014-10-11T05:45:00Z,29.6671,-81.2574,1.82,5.1,1111122 
NERRS,ioos:station:NOAA.NERRS:gtmpcwq:1,2014-10-11T07:45:00Z,29.6671,-81.2574,1.72,2.1,1111122 
NERRS,ioos:station:NOAA.NERRS:gtmpcwq:1,2014-10-11T08:45:00Z,29.6671,-81.2574,1.63,0.8,1111122 
NERRS,ioos:station:NOAA.NERRS:gtmpcwq:1,2014-10-11T09:45:00Z,29.6671,-81.2574,1.53,0.2,1111122 
NERRS,ioos:station:NOAA.NERRS:gtmpcwq:1,2014-10-11T10:45:00Z,29.6671,-81.2574,1.45,0.1,1111122 
NERRS,ioos:station:NOAA.NERRS:gtmpcwq:1,2014-10-11T11:45:00Z,29.6671,-81.2574,1.38,0.1,1111122 
NERRS,ioos:station:NOAA.NERRS:gtmpcwq:1,2014-10-11T12:45:00Z,29.6671,-81.2574,1.33,0.1,1111122 
NERRS,ioos:station:NOAA.NERRS:gtmpcwq:1,2014-10-11T13:45:00Z,29.6671,-81.2574,1.37,0.1,1111122 
NERRS,ioos:station:NOAA.NERRS:gtmpcwq:1,2014-10-11T14:45:00Z,29.6671,-81.2574,1.51,0.3,1111122 
NERRS,ioos:station:NOAA.NERRS:gtmpcwq:1,2014-10-11T15:45:00Z,29.6671,-81.2574,1.67,0.4,1111122 
NERRS,ioos:station:NOAA.NERRS:gtmpcwq:1,2014-10-11T16:45:00Z,29.6671,-81.2574,1.77,4.2,1111122 
NERRS,ioos:station:NOAA.NERRS:gtmpcwq:1,2014-10-11T17:45:00Z,29.6671,-81.2574,1.84,11.6,1111122 
NERRS,ioos:station:NOAA.NERRS:gtmpcwq:1,2014-10-11T18:45:00Z,29.6671,-81.2574,1.87,13.5,1111122 
NERRS,ioos:station:NOAA.NERRS:gtmpcwq:1,2014-10-11T19:45:00Z,29.6671,-81.2574,1.81,12.9,1111122 
NERRS,ioos:station:NOAA.NERRS:gtmpcwq:1,2014-10-11T20:45:00Z,29.6671,-81.2574,1.73,9.9,1111122 
NERRS,ioos:station:NOAA.NERRS:gtmpcwq:1,2014-10-11T21:45:00Z,29.6671,-81.2574,1.65,2.4,1111122 
NERRS,ioos:station:NOAA.NERRS:gtmpcwq:1,2014-10-11T22:45:00Z,29.6671,-81.2574,1.55,0.8,1111122 
NERRS,ioos:station:NOAA.NERRS:gtmpcwq:1,2014-10-11T23:45:00Z,29.6671,-81.2574,1.46,0.3,1111122 
NERRS,ioos:station:NOAA.NERRS:gtmpcwq:1,2014-10-12T00:45:00Z,29.6671,-81.2574,1.39,0.2,1111122 
NERRS,ioos:station:NOAA.NERRS:gtmpcwq:1,2014-10-12T01:45:00Z,29.6671,-81.2574,1.34,0.2,1111122 
NERRS,ioos:station:NOAA.NERRS:gtmpcwq:1,2014-10-12T02:45:00Z,29.6671,-81.2574,1.38,0.1,1111122 
NERRS,ioos:station:NOAA.NERRS:gtmpcwq:1,2014-10-12T04:45:00Z,29.6671,-81.2574,1.64,0.8,1111122 
NERRS,ioos:station:NOAA.NERRS:gtmpcwq:1,2014-10-12T06:45:00Z,29.6671,-81.2574,1.75,5.8,1111122 
NERRS,ioos:station:NOAA.NERRS:gtmpcwq:1,2014-10-12T07:45:00Z,29.6671,-81.2574,1.69,5.1,1111122 
NERRS,ioos:station:NOAA.NERRS:gtmpcwq:1,2014-10-12T08:45:00Z,29.6671,-81.2574,1.6,0.8,1111122 
NERRS,ioos:station:NOAA.NERRS:gtmpcwq:1,2014-10-12T09:45:00Z,29.6671,-81.2574,1.51,0.2,1111122 
NERRS,ioos:station:NOAA.NERRS:gtmpcwq:1,2014-10-12T10:45:00Z,29.6671,-81.2574,1.43,0.1,1111122 
NERRS,ioos:station:NOAA.NERRS:gtmpcwq:1,2014-10-12T11:45:00Z,29.6671,-81.2574,1.36,0.1,1111122 
NERRS,ioos:station:NOAA.NERRS:gtmpcwq:1,2014-10-12T12:45:00Z,29.6671,-81.2574,1.31,0.1,1111122 
NERRS,ioos:station:NOAA.NERRS:gtmpcwq:1,2014-10-12T13:45:00Z,29.6671,-81.2574,1.26,0.1,1111122 
NERRS,ioos:station:NOAA.NERRS:gtmpcwq:1,2014-10-12T14:45:00Z,29.6671,-81.2574,1.31,0.1,1111122 
NERRS,ioos:station:NOAA.NERRS:gtmpcwq:1,2014-10-12T15:45:00Z,29.6671,-81.2574,1.43,0.2,1111122 
NERRS,ioos:station:NOAA.NERRS:gtmpcwq:1,2014-10-12T16:45:00Z,29.6671,-81.2574,1.59,0.4,1111122 
NERRS,ioos:station:NOAA.NERRS:gtmpcwq:1,2014-10-12T17:45:00Z,29.6671,-81.2574,1.71,2.7,1111122 
NERRS,ioos:station:NOAA.NERRS:gtmpcwq:1,2014-10-12T18:45:00Z,29.6671,-81.2574,1.77,8.8,1111122 
NERRS,ioos:station:NOAA.NERRS:gtmpcwq:1,2014-10-12T19:45:00Z,29.6671,-81.2574,1.78,11.8,1111122 
NERRS,ioos:station:NOAA.NERRS:gtmpcwq:1,2014-10-12T20:45:00Z,29.6671,-81.2574,1.72,10.2,1111122 
NERRS,ioos:station:NOAA.NERRS:gtmpcwq:1,2014-10-12T21:45:00Z,29.6671,-81.2574,1.64,2.7,1111122 
NERRS,ioos:station:NOAA.NERRS:gtmpcwq:1,2014-10-12T22:45:00Z,29.6671,-81.2574,1.54,0.6,1111122 
NERRS,ioos:station:NOAA.NERRS:gtmpcwq:1,2014-10-12T23:45:00Z,29.6671,-81.2574,1.47,0.3,1111122 
NERRS,ioos:station:NOAA.NERRS:gtmpcwq:1,2014-10-13T00:45:00Z,29.6671,-81.2574,1.4,0.2,1111122 
NERRS,ioos:station:NOAA.NERRS:gtmpcwq:1,2014-10-13T01:45:00Z,29.6671,-81.2574,1.34,0.1,1111122 
NERRS,ioos:station:NOAA.NERRS:gtmpcwq:1,2014-10-13T02:45:00Z,29.6671,-81.2574,1.31,0.1,1111122 
NERRS,ioos:station:NOAA.NERRS:gtmpcwq:1,2014-10-13T03:45:00Z,29.6671,-81.2574,1.38,0.1,1111122 
NERRS,ioos:station:NOAA.NERRS:gtmpcwq:1,2014-10-13T04:45:00Z,29.6671,-81.2574,1.49,0.4,1111122 
NERRS,ioos:station:NOAA.NERRS:gtmpcwq:1,2014-10-13T05:45:00Z,29.6671,-81.2574,1.62,0.6,1111122 
NERRS,ioos:station:NOAA.NERRS:gtmpcwq:1,2014-10-13T06:45:00Z,29.6671,-81.2574,1.71,2.0,1111122 
NERRS,ioos:station:NOAA.NERRS:gtmpcwq:1,2014-10-13T07:45:00Z,29.6671,-81.2574,1.73,3.9,1111122 
NERRS,ioos:station:NOAA.NERRS:gtmpcwq:1,2014-10-13T08:45:00Z,29.6671,-81.2574,1.66,1.7,1111122 
NERRS,ioos:station:NOAA.NERRS:gtmpcwq:1,2014-10-13T09:45:00Z,29.6671,-81.2574,1.58,0.4,1111122 
NERRS,ioos:station:NOAA.NERRS:gtmpcwq:1,2014-10-13T10:45:00Z,29.6671,-81.2574,1.49,0.2,1111122 
NERRS,ioos:station:NOAA.NERRS:gtmpcwq:1,2014-10-13T11:45:00Z,29.6671,-81.2574,1.42,0.1,1111122 
NERRS,ioos:station:NOAA.NERRS:gtmpcwq:1,2014-10-13T12:45:00Z,29.6671,-81.2574,1.36,0.1,1111122 
NERRS,ioos:station:NOAA.NERRS:gtmpcwq:1,2014-10-13T13:45:00Z,29.6671,-81.2574,1.32,0.1,1111122 
NERRS,ioos:station:NOAA.NERRS:gtmpcwq:1,2014-10-13T15:45:00Z,29.6671,-81.2574,1.37,0.2,1111122 
NERRS,ioos:station:NOAA.NERRS:gtmpcwq:1,2014-10-13T16:45:00Z,29.6671,-81.2574,1.5,0.2,1111122 